Regional Weather Roundup
Issued by NWS Green Bay, WI

Home | Current Version | Previous Version | Text Only | Print | Product List | Glossary On
Versions: 1 2 3 4 5 6 7 8 9 10 11 12 13 14 15 16 17 18 19 20 21 22 23 24 25 26 27 28 29 30 31 32 33 34 35 36 37 38 39 40 41 42 43 44 45 46 47 48 49 50
000
ASUS43 KGRB 311110
RWRGRB

NORTH-CENTRAL AND NORTHEAST WISCONSIN REGIONAL WEATHER ROUNDUP
NATIONAL WEATHER SERVICE GREEN BAY WI
500 AM CST SAT JAN 31 2015

WIZ005-009-010>012-018-019-311200-
NORTH CENTRAL WISCONSIN

CITY           SKY/WX    TMP DP  RH WIND       PRES   REMARKS
IRONWOOD       CLOUDY    21  18  86 W8        30.06R
MANITOWISH WTR CLOUDY    17  14  88 W5        30.05F WCI  10
ARBOR VITAE    CLOUDY    19  14  80 CALM      30.06S
EAGLE RIVER    CLOUDY    17  10  76 W5        30.05F WCI  10
LAND O LAKES   CLOUDY    17  11  77 CALM      30.06R
RHINELANDER    CLOUDY    17   9  70 SW6       30.07S WCI   9
PHILLIPS       CLOUDY    19  13  79 SW5       30.08S
ANTIGO         CLOUDY    17  10  74 SW3       30.08F
TOMAHAWK       CLOUDY    19  11  73 CALM      30.08F
MERRILL        CLOUDY    19  11  70 SW3       30.09F
$$

WIZ013-073-311200-
NORTHEAST WISCONSIN

CITY           SKY/WX    TMP DP  RH WIND       PRES   REMARKS
IRON MOUNTAIN  CLOUDY    18   9  68 CALM      30.07F
MARINETTE      CLOUDY    21   9  58 W5        30.13F
OCONTO         CLOUDY    21  13  71 MISG      30.14F
$$

WIZ017-030-035>037-045-311200-
CENTRAL WISCONSIN

CITY           SKY/WX    TMP DP  RH WIND       PRES   REMARKS
MEDFORD        CLOUDY    19  11  73 W3        30.09S
WAUSAU         CLOUDY    19  10  68 SW6       30.09F
MOSINEE        NOT AVBL
MARSHFIELD     CLOUDY    19  11  70 SW5       30.10F
WISC RAPIDS    CLOUDY    20  11  68 S3        30.14F
STEVENS POINT  CLOUDY    18  12  75 CALM      30.13S
WAUPACA        CLOUDY    21  13  71 S3        30.15F
SHAWANO        CLOUDY    22  13  66 SW5       30.14F
CLINTONVILLE   CLOUDY    21  12  68 SW5       30.14F
$$

WIZ038-039-048-051-311200-
FOX VALLEY

CITY           SKY/WX    TMP DP  RH WIND       PRES   REMARKS
NWS GREEN BAY  CLOUDY    21  14  74 SW8       30.15F
APPLETON       NOT AVBL
OSHKOSH        CLOUDY    21  15  78 S6        30.16F
FOND DU LAC    CLOUDY    23  15  71 SW8       30.16F
$$

WIZ022-050-052-311200-
EAST CENTRAL WISCONSIN

CITY           SKY/WX    TMP DP  RH WIND       PRES   REMARKS
STURGEON BAY   CLOUDY    21  12  68 SW7       30.15F
MANITOWOC      CLOUDY    23  16  74 SW9       30.17
SHEBOYGAN      CLOUDY    20  15  81 SW7       30.17F
$$

LMZ563-521-522-541>543-311200-
LAKESHORE

STATION/POSITION TIME  TEMP    WIND        PRES    VSBY  WAVE
                       AIR SEA DIR/SP/G                  HT/PER
                 (UTC) (F)     (DEG/KT/KT) (MB)    (MI)  (FT/S)
SHEBOYGAN LKSHOR 1100   22     220/  7/  8 1023.3F
KEWAUNEE LKSHORE 1100   22     230/  4/  7 1020.5F
NORTHPORT PIER   1100   21     220/  4/  9 1020.7F
SISTER BAY LKSHO 1100   22     220/  8/ 10   N/A
CHAMBERS ISLAND  1100   21     200/  6/ 13 1021.0S
MENOMINEE LKSHOR 1100   21     210/  6     1021.3F
$$


USA.gov is the U.S. government's official web portal to all federal, state and local government web resources and services.